Lamar, CO

10:28 PM MST on December 09, 2019 (GMT -0700)
Lamar Municipal

Weather History for KLAA - October, 2019

Change the Weather History Date:

Thursday, October 10, 2019

  Actual Average Record
Temperature  
Mean Temperature 32 °F 55 °F  
Max Temperature 43 °F 73 °F 93 °F (1931)
Min Temperature 21 °F 38 °F 21 °F (2019)
Degree Days  
Heating Degree Days 33 10  
Month to date heating degree days 89 82  
Since 1 July heating degree days 95 165  
Cooling Degree Days 0 0  
Month to date cooling degree days 1 8  
Year to date cooling degree days 1406 1120  
Moisture  
Dew Point 23 °F    
Average Humidity 62    
Maximum Humidity 77    
Minimum Humidity 47    
Precipitation  
Precipitation T in 0.03 in 1.18 in (2005)
Month to date precipitation 0.01 0.26  
Year to date precipitation 7.76 13.88  
Sea Level Pressure  
Sea Level Pressure 30.05 in    
Wind  
Wind Speed 15 mph (NNW)    
Max Wind Speed 35 mph    
Max Gust Speed 51 mph    
Visibility 10 miles    
Events Snow    
T = Trace of Precipitation, MM = Missing Value Source: NWS Daily Summary

Daily Weather History Graph

Daily Weather History Graph

Search for Another Location

Airport or City:

Astronomy

Oct. 10, 2019 Rise Set
Actual Time 6:54 AM MDT 6:20 PM MDT
Civil Twilight 6:28 AM MDT 6:46 PM MDT
Nautical Twilight 5:57 AM MDT 7:17 PM MDT
Astronomical Twilight 5:27 AM MDT 7:47 PM MDT
Moon 5:19 PM MDT 3:44 AM MDT
Length of Visible Light 12h 18m
Length of Day
11h 25m
Waxing Gibbous, 91% of the Moon is Illuminated
Oct 10
Waxing Gibbous
Oct 13
Full
Oct 21
Last Quarter
Oct 27
New
Nov 4
First Quarter

Hourly Weather History & Observations

Time (MDT) Temp. Windchill Dew Point Humidity Pressure Visibility Wind Dir Wind Speed Gust Speed Precip Events Conditions
12:12 AM 44.1 °F 34.0 °F 35.1 °F 71% 29.76 in 10.0 mi North 29.9 mph 48.3 mph N/A   Mostly Cloudy
12:53 AM 43.0 °F 32.2 °F 32.0 °F 65% 29.68 in 10.0 mi North 32.2 mph 47.2 mph N/A   Overcast
1:53 AM 39.9 °F 29.2 °F 30.9 °F 70% 29.74 in 10.0 mi North 25.3 mph 36.8 mph N/A   Overcast
2:38 AM 39.0 °F 29.0 °F 28.9 °F 67% 29.89 in 10.0 mi North 20.7 mph 31.1 mph N/A   Overcast
2:53 AM 39.0 °F 31.0 °F 28.9 °F 67% 29.81 in 10.0 mi North 13.8 mph 28.8 mph N/A   Overcast
3:05 AM 39.0 °F 30.3 °F 28.9 °F 67% 29.92 in 10.0 mi North 16.1 mph 24.2 mph N/A   Overcast
3:39 AM 37.9 °F 28.2 °F 28.9 °F 70% 29.93 in 10.0 mi North 18.4 mph 27.6 mph N/A   Overcast
3:53 AM 37.9 °F 28.2 °F 28.9 °F 70% 29.83 in 10.0 mi North 18.4 mph 31.1 mph N/A   Overcast
4:06 AM 37.9 °F 28.2 °F 28.9 °F 70% 29.95 in 10.0 mi North 18.4 mph 26.5 mph N/A   Overcast
4:53 AM 37.0 °F 28.1 °F 27.0 °F 67% 29.88 in 10.0 mi North 15.0 mph 28.8 mph N/A   Overcast
5:48 AM 35.6 °F 24.8 °F 24.8 °F 65% 29.99 in 10.0 mi North 19.6 mph 25.3 mph N/A   Overcast
5:53 AM 34.0 °F 22.7 °F 25.0 °F 70% 29.91 in 10.0 mi North 19.6 mph 35.7 mph N/A   Mostly Cloudy
6:09 AM 33.1 °F 23.0 °F 24.1 °F 70% 30.00 in 10.0 mi North 15.0 mph 32.2 mph N/A   Mostly Cloudy
6:53 AM 33.1 °F 25.5 °F 23.0 °F 66% 29.96 in 10.0 mi NNW 9.2 mph 20.7 mph N/A   Overcast
7:38 AM 34.0 °F 23.8 °F 23.0 °F 64% 30.04 in 10.0 mi North 16.1 mph 27.6 mph N/A   Overcast
7:53 AM 34.0 °F 24.2 °F 23.0 °F 64% 29.99 in 10.0 mi North 15.0 mph 25.3 mph N/A   Overcast
8:19 AM 34.0 °F 23.0 °F 23.0 °F 64% 30.06 in 10.0 mi NNW 18.4 mph 25.3 mph N/A   Overcast
8:53 AM 35.1 °F 24.5 °F 21.9 °F 59% 30.03 in 10.0 mi North 18.4 mph 31.1 mph N/A   Overcast
9:05 AM 35.1 °F 25.2 °F 21.9 °F 59% 30.09 in 10.0 mi North 16.1 mph 29.9 mph N/A   Overcast
9:53 AM 35.1 °F 24.1 °F 21.0 °F 57% 30.07 in 10.0 mi North 19.6 mph 29.9 mph N/A   Overcast
10:53 AM 35.1 °F 23.8 °F 19.9 °F 54% 30.11 in 10.0 mi North 20.7 mph 27.6 mph N/A   Overcast
11:53 AM 37.0 °F 27.4 °F 19.9 °F 50% 30.12 in 10.0 mi North 17.3 mph 27.6 mph N/A   Overcast
12:53 PM 36.0 °F 24.4 °F 18.0 °F 48% 30.13 in 10.0 mi North 23.0 mph 33.4 mph N/A   Overcast
1:53 PM 36.0 °F 25.6 °F 17.1 °F 46% 30.13 in 10.0 mi North 18.4 mph 32.2 mph N/A   Overcast
2:53 PM 35.1 °F 24.1 °F 17.1 °F 48% 30.15 in 10.0 mi North 19.6 mph 31.1 mph N/A   Overcast
3:53 PM 34.0 °F 21.5 °F 18.0 °F 52% 30.16 in 10.0 mi NNW 24.2 mph 34.5 mph N/A   Overcast
4:53 PM 32.0 °F 20.8 °F 21.9 °F 66% 30.19 in 9.0 mi North 17.3 mph 26.5 mph 0.00 in Snow Light Snow
5:07 PM 32.0 °F 20.8 °F 21.9 °F 66% 30.17 in 10.0 mi North 17.3 mph - 0.00 in   Overcast
5:53 PM 32.0 °F 20.8 °F 19.9 °F 61% 30.22 in 10.0 mi North 17.3 mph 25.3 mph 0.00 in   Overcast
6:53 PM 32.0 °F 22.1 °F 19.0 °F 59% 30.25 in 10.0 mi North 13.8 mph - N/A   Overcast
7:53 PM 28.9 °F 19.2 °F 18.0 °F 64% 30.30 in 10.0 mi NNW 11.5 mph - N/A   Clear
8:53 PM 24.1 °F 16.0 °F 16.0 °F 71% 30.34 in 10.0 mi WNW 6.9 mph - N/A   Clear
9:53 PM 21.9 °F 13.4 °F 15.1 °F 75% 30.35 in 10.0 mi West 6.9 mph - N/A   Clear
10:53 PM 23.0 °F 13.9 °F 16.0 °F 74% 30.37 in 10.0 mi WNW 8.1 mph - N/A   Clear
11:53 PM 21.0 °F 13.4 °F 14.0 °F 74% 30.38 in 10.0 mi WNW 5.8 mph - N/A   Clear